User: anonymous   Login
Location: Oshawa
(43.9000°N, 78.8670°W)
Time: 22:32:25
(UTC-04:00)
Language:

Cosmos 1707 Rocket - Orbit

View from above orbital plane
View from above orbital plane
View from above satellite
View from above satellite

Ground track
Ground track

The orbit data is extracted from the following two-line orbital elements,

1 16327U 85113B   15242.83651571  .00000178  00000-0  18842-4 0  9990
2 16327 082.5376 345.9166 0018971 357.5450 123.6757 14.83181113604586
Epoch (UTC): 30 August 2015 20:04:34
Eccentricity: 0.0018971
inclination: 82.5376°
perigee height: 606 km
apogee height: 632 km
right ascension of ascending node: 345.9166°
argument of perigee: 357.5450°
revolutions per day: 14.83181113
mean anomaly at epoch: 123.6757°
orbit number at epoch: 60458

The dashed part of the orbit path shows where the satellite is in the earth's shadow,  

DLR